Showing default

OPS 9321 (IDSCS 8), 2645

Orbit data source: Space-Track

OPS 9321 (IDSCS 8), 2645 is a payload satellite owned by USAF SSD (US) in GEO that was launched on Wed, 18 Jan 1967 UTC via a TITAN IIIC launch vehicle from the Air Force Eastern Test Range (AFETR). Payload-class satellites include a variety of spacecraft equipped with specific instruments for various scientific and technological missions. These include communications satellites like Starlink; space stations such as the ISS; scientific satellites like the Hubble; Earth observation satellites from companies like Planet Labs, Umbra, and HawkEye 360; GPS; miniature CubeSats for education and research; and military/defense satellites.

Not visible in the next 10 days
Identifier
2645, 1967-003A
Orbit
GEO
Last TLE update
11 hours ago
Origin
Manufacturer
Philco-Ford WDL
Mission
Non-operational Defense Communications
Bus & Motor
IDCSP, Unknown motor
Mass
45 kg wet, 45 kg dry
Launch date (UTC)
1967-01-18 (58 years ago)
Launch vehicle
TITAN IIIC
Launch site
Air Force Eastern Test Range (AFETR)
Object type
Payload
Rocket body
Debris
Shape & HBR
Ico Poly, 0.9 m
Radar Cross Section
0.926 m², Medium (>0.1 m² and < 1m²)

Expand to show TLE details & history

TLE from 11 hours ago
0 OPS 9321 (IDSCS 8)
1 02645U 67003A   25181.88725773 -.00000114  00000-0  00000-0 0  9994
2 02645   7.6894  47.7593 0035535 112.0628 184.6106  1.08317441230649
Epoch: 2025-06-30T21:17Z
TLE epoch observation values (Epoch: 2025-06-30T21:17:39.067Z)
Latitude
-6.88748°
Longitude
106.01672°
Altitude
33,814.137 km
Speed
3.144 km/s
True Right ascension
22h 58m 28s
True Declination
-6° 52' 49"
Sunlit
Object was in daylight at epoch
Visualization orbit readout
Latitude
6.45584°
Longitude
-67.53642°
Altitude
33,531.513 km
Speed
3.166 km/s
Apparent Right ascension
11h 05m 51s
Apparent Declination
0° 32' 43"
Sunlit
Object is in daylight
Visualization observer readout
Local Sidereal Time
20:23:47
Azimuth
307.312° NW
Elevation
-35.237°
Doppler factor
1
Orbital elements
Apogee altitude
33,815.316 km
Perigee altitude
33,530.672 km
Semi-major axis
40,051.131 km
Eccentricity
0.00355
Inclination
7.6894°
RAAN
47.7593°
Arg. of periapsis
112.0628°
True anomaly
Unknown
Mean anomaly
184.6106°
Eccentric anomaly
Unknown
Mean motion
0.27078 °/min
Orbital period
1,329.48 mins
BSTAR
0
Loading historical data...
2645 neighbors
Loading maneuver chart data...
Loading SW <> Apogee altitude chart data...
Loading historical data...
Loading historical data...
Loading historical data...
Loading historical data...
Loading historical data...
Loading historical data...
Loading historical data...

OPS 9321 (IDSCS 8) Visibility

Observer location: undefined°, undefined°

OPS 9321 (IDSCS 8) is likely not visible in the next few days
Span
Click to sort rows by Start time (UTC) header in descending order
Start Az.
Max El. time (UTC)
Max El. Az.
Max El.
End time (UTC)
End Az.
|